User: anonymous   Login
Location: Augirein
(42.9320°N, 0.9181°E)
Time: 19:32:18
(UTC+00:00)
Language:

Cosmos 1408 - Orbit

View from above orbital plane
View from above orbital plane
View from above satellite
View from above satellite

Ground track
Ground track

The orbit data is extracted from the following two-line orbital elements,

1 13552U 82092A   21261.52070669  .00001880  00000-0  65165-4 0  9998
2 13552  82.5696 181.1584 0016123 318.8199  41.1824 15.29061497134017
Epoch (UTC): 18 September 2021 12:29:49
Eccentricity: 0.0016123
inclination: 82.5696°
perigee height: 467 km
apogee height: 489 km
right ascension of ascending node: 181.1584°
argument of perigee: 318.8199°
revolutions per day: 15.29061497
mean anomaly at epoch: 41.1824°
orbit number at epoch: 13401

The dashed part of the orbit path shows where the satellite is in the earth's shadow,  

DLR